Regional Weather Roundup
Issued by NWS

Home | Current Version | Previous Version | Graphics & Text | Print | Product List | Glossary On
Versions: 1 2 3 4 5 6 7 8 9 10 11 12 13 14 15 16 17 18 19 20 21 22 23 24 25 26 27 28 29 30 31 32 33 34 35 36 37 38 39 40 41 42 43 44 45 46 47 48 49 50
000
ASUS45 KCYS 041010
RWRWY

WYOMING REGIONAL WEATHER ROUNDUP
NATIONAL WEATHER SERVICE CHEYENNE WY
400 AM MDT SAT JUL 04 2015

NOTE:  "FAIR" INDICATES FEW OR NO CLOUDS BELOW 12,000 FEET
WITH NO SIGNIFICANT WEATHER AND/OR OBSTRUCTIONS TO VISIBILITY.

WYZ001-041100-
YELLOWSTONE NATIONAL PARK

CITY           SKY/WX    TMP DP  RH WIND       PRES   REMARKS
LK YELLOWSTONE   N/A     45  39  79 CALM      30.21S
W YELLOWSTONE  NOT AVBL

$$
WYZ002>013-054>058-071-098>099-041100-
NORTHERN WYOMING

CITY           SKY/WX    TMP DP  RH WIND       PRES   REMARKS
JACKSON        FAIR      52  46  82 N5        30.09S
CODY           FAIR      66  48  52 SW8       29.96S
GREYBULL       FAIR      68  50  52 SE3       29.89R
WORLAND        FAIR      61  54  77 SE7       29.90S
SHERIDAN       FAIR      58  53  84 CALM      29.87S
BUFFALO        FAIR      64  49  57 SW8       29.94F
GILLETTE       FAIR      63  57  81 S10       29.91F
HULETT         FAIR      70  55  60 CALM      29.92F
NEWCASTLE      FAIR      66  52  59 E9        29.94F

$$
WYZ014>020-022>026-101>103-041100-
CENTRAL WYOMING

CITY           SKY/WX    TMP DP  RH WIND       PRES   REMARKS
BIG PINEY      FAIR      55  43  63 CALM      30.14F
PINEDALE       FAIR      54  46  76 NW6       30.16S
DUBOIS         FAIR      54  37  54 NW9       30.14S
LANDER         FAIR      65  46  50 W5        30.01R
RIVERTON       FAIR      63  50  62 NW6       30.00S
CASPER         FAIR      58  52  80 CALM      29.97F
DOUGLAS        FAIR      63  53  70 S5        29.97F

$$
WYZ021-027>030-104>119-041100-
SOUTHERN WYOMING

CITY           SKY/WX    TMP DP  RH WIND       PRES   REMARKS
EVANSTON       FAIR      64  42  44 SE9       30.16S
KEMMERER       FAIR      59  45  58 NW3       30.17F
FORT BRIDGER   SUNNY     68  39  34 W9        30.17S
ROCK SPRINGS   FAIR      64  40  41 SW7       30.12S
DIXON          FAIR      54  43  67 CALM      30.14R
RAWLINS        FAIR      55  49  80 N3        30.11S
SARATOGA       FAIR      55  46  71 S10       30.13S
LARAMIE        FAIR      54  50  86 SE10      30.12F
CHEYENNE       FAIR      60  54  80 E6        30.07F
TORRINGTON     FAIR      63  57  81 E8        29.94F
PINE BLUFFS    FAIR      61  55  82 CALM      30.04F

$$


USA.gov is the U.S. government's official web portal to all federal, state and local government web resources and services.